When you browse on this site, cookies collect data to enhance your experience and personalize the content and advertising you see.
Visit our Privacy Policy to learn more. By continuing to use the site, you agree to this use of cookies and data.
  • In Latvia
  • List of Countries
  • For 7 days
  • Water Temperature
  • Weather Map
  • Weather Widgets
  • user-avatar
    Login

    Hourly Weather Blagoevgrad

    Today, 10 December, Tuesday

    Time Temperature Precipitation Wind Pressure Humidity
    00:00 +5°C° 0 mm 1 mps 716 mmHg 85%
    01:00 +5°C° 0 mm 1 mps 716 mmHg 86%
    02:00 +5°C° 0 mm 1 mps 716 mmHg 86%
    03:00 +5°C° 0 mm 1 mps 716 mmHg 86%
    04:00 +5°C° 0 mm 1 mps 716 mmHg 86%
    05:00 +5°C° 0 mm 1 mps 716 mmHg 87%
    06:00 +5°C° 0 mm 1 mps 716 mmHg 87%
    07:00 +5°C° 0 mm 1 mps 716 mmHg 86%
    08:00 +5°C° 0 mm 1 mps 716 mmHg 86%
    09:00 +7°C° 0 mm 1 mps 716 mmHg 82%
    10:00 +8°C° 0 mm 1 mps 716 mmHg 78%
    11:00 +10°C° 0 mm 1 mps 716 mmHg 75%
    12:00 +10°C° 0 mm 1 mps 716 mmHg 73%
    13:00 +11°C° 0 mm 1 mps 716 mmHg 72%
    14:00 +11°C° 0 mm 1 mps 716 mmHg 70%
    15:00 +10°C° 0 mm 1 mps 716 mmHg 75%
    16:00 +9°C° 0 mm 1 mps 715 mmHg 80%
    17:00 +8°C° 0 mm 1 mps 715 mmHg 85%
    18:00 +8°C° 0.1 mm 1 mps 716 mmHg 85%
    19:00 +7°C° 0.1 mm 1 mps 716 mmHg 85%
    20:00 +7°C° 0.1 mm 1 mps 716 mmHg 85%
    21:00 +6°C° 0.2 mm 2 mps 716 mmHg 85%
    22:00 +6°C° 0.2 mm 2 mps 716 mmHg 85%
    23:00 +6°C° 0.2 mm 2 mps 717 mmHg 86%

    Tomorrow, 11 December, Wednesday

    Time Temperature Precipitation Wind Pressure Humidity
    00:00 +6°C° 0 mm 2 mps 717 mmHg 87%
    01:00 +5°C° 0 mm 2 mps 717 mmHg 89%
    02:00 +5°C° 0 mm 2 mps 717 mmHg 90%
    03:00 +5°C° 0 mm 2 mps 717 mmHg 90%
    04:00 +5°C° 0 mm 2 mps 717 mmHg 90%
    05:00 +3°C° 0 mm 3 mps 717 mmHg 90%
    06:00 +4°C° 0.1 mm 2 mps 717 mmHg 90%
    07:00 +4°C° 0.1 mm 2 mps 717 mmHg 90%
    08:00 +4°C° 0.1 mm 2 mps 717 mmHg 90%
    09:00 +5°C° 0.2 mm 2 mps 717 mmHg 88%
    10:00 +6°C° 0.2 mm 2 mps 717 mmHg 87%
    11:00 +6°C° 0.2 mm 2 mps 718 mmHg 85%
    12:00 +6°C° 1 mm 2 mps 717 mmHg 88%
    13:00 +7°C° 1 mm 1 mps 717 mmHg 91%
    14:00 +6°C° 1 mm 1 mps 717 mmHg 94%
    15:00 +6°C° 0.2 mm 1 mps 717 mmHg 95%
    16:00 +6°C° 0.2 mm 1 mps 716 mmHg 95%
    17:00 +6°C° 0.2 mm 1 mps 716 mmHg 96%
    18:00 +6°C° 0.1 mm 1 mps 716 mmHg 96%
    19:00 +6°C° 0.1 mm 1 mps 716 mmHg 96%
    20:00 +6°C° 0.1 mm 1 mps 716 mmHg 96%
    21:00 +6°C° 0.1 mm 1 mps 716 mmHg 95%
    22:00 +6°C° 0.1 mm 1 mps 716 mmHg 95%
    23:00 +6°C° 0.1 mm 1 mps 716 mmHg 95%

    Day after tomorrow, 12 December, Thursday

    Time Temperature Precipitation Wind Pressure Humidity
    00:00 +6°C° 0 mm 1 mps 715 mmHg 95%
    01:00 +6°C° 0 mm 1 mps 715 mmHg 95%
    02:00 +6°C° 0 mm 1 mps 715 mmHg 95%
    03:00 +6°C° 0 mm 1 mps 714 mmHg 94%
    04:00 +5°C° 0 mm 1 mps 714 mmHg 94%
    05:00 +5°C° 0 mm 1 mps 713 mmHg 93%
    06:00 +5°C° 0 mm 1 mps 713 mmHg 93%
    07:00 +5°C° 0 mm 1 mps 713 mmHg 92%
    08:00 +5°C° 0 mm 1 mps 714 mmHg 92%
    09:00 +6°C° 0 mm 1 mps 714 mmHg 89%
    10:00 +8°C° 0 mm 1 mps 714 mmHg 86%
    11:00 +9°C° 0 mm 1 mps 714 mmHg 82%
    12:00 +8°C° 0 mm 0 mps 714 mmHg 81%
    13:00 +9°C° 0 mm 0 mps 713 mmHg 80%
    14:00 +10°C° 0 mm 0 mps 713 mmHg 78%
    15:00 +9°C° 0 mm 0 mps 713 mmHg 82%
    16:00 +9°C° 0 mm 1 mps 713 mmHg 87%
    17:00 +8°C° 0 mm 1 mps 712 mmHg 91%
    18:00 +7°C° 0 mm 1 mps 713 mmHg 91%
    19:00 +7°C° 0 mm 1 mps 713 mmHg 91%
    20:00 +7°C° 0 mm 1 mps 713 mmHg 91%
    21:00 +7°C° 0 mm 1 mps 713 mmHg 91%
    22:00 +6°C° 0 mm 1 mps 713 mmHg 91%
    23:00 +6°C° 0 mm 1 mps 713 mmHg 92%

    13 December, Friday

    Time Temperature Precipitation Wind Pressure Humidity
    00:00 +7°C° 0 mm 1 mps 713 mmHg 92%
    01:00 +7°C° 0 mm 1 mps 712 mmHg 92%
    02:00 +7°C° 0 mm 1 mps 712 mmHg 92%
    03:00 +7°C° 0 mm 1 mps 712 mmHg 92%
    04:00 +7°C° 0 mm 1 mps 712 mmHg 92%
    05:00 +7°C° 0 mm 1 mps 712 mmHg 92%
    06:00 +7°C° 0.1 mm 1 mps 712 mmHg 92%
    07:00 +7°C° 0.1 mm 1 mps 712 mmHg 93%
    08:00 +7°C° 0.1 mm 1 mps 712 mmHg 93%
    09:00 +8°C° 0 mm 1 mps 712 mmHg 89%
    10:00 +9°C° 0 mm 1 mps 711 mmHg 85%
    11:00 +9°C° 0 mm 2 mps 711 mmHg 81%
    12:00 +9°C° 0 mm 2 mps 711 mmHg 80%
    13:00 +9°C° 0 mm 2 mps 710 mmHg 78%
    14:00 +10°C° 0 mm 2 mps 710 mmHg 76%
    15:00 +9°C° 0 mm 2 mps 709 mmHg 80%
    16:00 +8°C° 0 mm 2 mps 709 mmHg 85%
    17:00 +7°C° 0 mm 2 mps 709 mmHg 90%
    18:00 +6°C° 0 mm 2 mps 709 mmHg 90%
    19:00 +6°C° 0 mm 2 mps 709 mmHg 90%
    20:00 +6°C° 0 mm 2 mps 709 mmHg 91%
    21:00 +5°C° 0 mm 2 mps 708 mmHg 90%
    22:00 +5°C° 0 mm 2 mps 708 mmHg 89%
    23:00 +5°C° 0 mm 2 mps 708 mmHg 89%

    14 December, Saturday

    Time Temperature Precipitation Wind Pressure Humidity
    00:00 +5°C° 0 mm 2 mps 708 mmHg 88%
    01:00 +5°C° 0 mm 2 mps 707 mmHg 88%
    02:00 +5°C° 0 mm 2 mps 707 mmHg 88%
    03:00 +5°C° 0 mm 2 mps 707 mmHg 88%
    04:00 +5°C° 0 mm 2 mps 707 mmHg 87%
    05:00 +5°C° 0 mm 2 mps 706 mmHg 87%
    06:00 +5°C° 0 mm 2 mps 706 mmHg 87%
    07:00 +5°C° 0 mm 2 mps 706 mmHg 88%
    08:00 +5°C° 0 mm 2 mps 706 mmHg 88%
    09:00 +7°C° 0 mm 2 mps 707 mmHg 84%
    10:00 +8°C° 0 mm 2 mps 707 mmHg 80%
    11:00 +9°C° 0 mm 2 mps 708 mmHg 76%
    12:00 +10°C° 0 mm 2 mps 708 mmHg 76%
    13:00 +10°C° 0 mm 2 mps 708 mmHg 77%
    14:00 +10°C° 0 mm 2 mps 708 mmHg 77%
    15:00 +11°C° 0.1 mm 1 mps 709 mmHg 81%
    16:00 +10°C° 0.1 mm 1 mps 710 mmHg 84%
    17:00 +9°C° 0.1 mm 1 mps 711 mmHg 88%
    18:00 +9°C° 0.1 mm 1 mps 712 mmHg 89%
    19:00 +9°C° 0.1 mm 1 mps 713 mmHg 90%
    20:00 +9°C° 0.1 mm 1 mps 714 mmHg 91%
    21:00 +9°C° 0 mm 1 mps 715 mmHg 91%
    22:00 +8°C° 0 mm 0 mps 716 mmHg 91%
    23:00 +8°C° 0 mm 0 mps 716 mmHg 92%

    15 December, Sunday

    Time Temperature Precipitation Wind Pressure Humidity
    00:00 +8°C° 0 mm 0 mps 717 mmHg 91%
    01:00 +7°C° 0 mm 0 mps 717 mmHg 91%
    02:00 +7°C° 0 mm 0 mps 718 mmHg 90%
    03:00 +7°C° 0 mm 0 mps 718 mmHg 90%
    04:00 +7°C° 0 mm 0 mps 719 mmHg 90%
    05:00 +7°C° 0 mm 0 mps 719 mmHg 90%
    06:00 +7°C° 0 mm 0 mps 720 mmHg 90%
    07:00 +7°C° 0 mm 0 mps 720 mmHg 90%
    08:00 +7°C° 0 mm 0 mps 721 mmHg 90%
    09:00 +10°C° 0 mm 1 mps 721 mmHg 85%
    10:00 +11°C° 0 mm 1 mps 722 mmHg 81%
    11:00 +13°C° 0 mm 1 mps 722 mmHg 77%
    12:00 +14°C° 0 mm 1 mps 722 mmHg 75%
    13:00 +14°C° 0 mm 1 mps 722 mmHg 74%
    14:00 +15°C° 0 mm 1 mps 722 mmHg 72%
    15:00 +14°C° 0 mm 1 mps 722 mmHg 77%
    16:00 +13°C° 0 mm 1 mps 722 mmHg 82%
    17:00 +11°C° 0 mm 1 mps 722 mmHg 87%
    18:00 +11°C° 0 mm 1 mps 722 mmHg 86%
    19:00 +10°C° 0 mm 1 mps 723 mmHg 86%
    20:00 +10°C° 0 mm 1 mps 723 mmHg 85%
    21:00 +10°C° 0 mm 1 mps 723 mmHg 84%
    22:00 +9°C° 0 mm 1 mps 724 mmHg 84%
    23:00 +9°C° 0 mm 1 mps 724 mmHg 83%
    Show more